YAOGAN-30 05B (43171 NORAD) Tracking and Keplerian Element Data

This shows tracking and keplerian element data for the satellite.

Feedback or suggestion? Click here.




ElementValue
Catalog43171
NameYAOGAN-30 05B
Epoch Orbit38334
Epoch Day35.06683896
Epoch Year2025
RAAN298.262
Inclination34.9957
Eccentricity0.0003673
Argument of Perigee318.0176
Mean Anonmoly42.025
Mean Motion14.98642931
Decay Rate5.899E-05
L11 43171U 18011C 25035.06683896 .00005899 00000+0 48369-3 0 9991
L22 43171 34.9957 298.2620 0003673 318.0176 42.0250 14.98642931383340



Live tracking and technical data element details for YAOGAN-30 05B (NORAD 43171). YAOGAN-30 05B can be tracked NOW for your location showing map with azimuth and elevation plus other details from your city location.







IsCatalogInMostPopularTable: catalog: 43171, numindb: 460
Update: records affected: 1



GetName: 43171 YAOGAN-30 05B

Hit Count: updated at: Sat, 24 May 2025 17:23:19 GMT